Theta_e
326 321 321 321 324 323 322 324 327 330 338 333 335 341 346 347 345 348 347 345 346 345
323 324 323 323 323 323 324 325 327 330 331 341 340 338 341 346 344 347 346 346 346 347
321 321 321 321 321 322 323 325 325 326 329 338 339 327 324 339 343 343 346 348 346 345
320 320 319 318 319 320 322 323 323 325 328 334 338 332 331 338 343 339 341 344 343 344
318 317 316 317 318 321 321 322 322 324 327 331 337 339 337 337 340 337 338 342 342 340
313 313 312 313 315 317 317 320 322 324 326 327 336 337 341 340 341 337 339 341 341 339
310 310 310 310 312 313 316 318 320 322 326 329 335 337 338 339 339 338 338 339 339 339
308 308 308 308 310 312 316 318 321 323 325 329 335 338 331 330 328 332 334 336 337 336
304 304 306 307 308 311 315 316 320 323 324 330 334 314 315 319 321 318 329 332 332 331
302 303 304 306 308 311 312 315 322 325 328 330 333 307 311 314 320 323 325 321 321 317
302 302 304 306 308 312 313 319 322 325 327 328 318 308 308 311 324 325 324 320 318 314
301 301 304 304 308 311 316 317 316 319 322 321 312 304 305 315 318 316 314 315 314 312
301 303 302 305 308 312 316 313 314 313 314 310 308 302 304 312 313 309 307 307 307 306
302 301 303 305 312 314 309 308 306 307 307 306 307 304 300 304 311 308 305 305 305 305
Wind_Speed
8 8 8 10 9 10 11 13 16 17 7 16 14 22 17 10 9 9 9 11 10 7
7 9 8 10 11 11 12 12 15 16 16 11 13 14 14 10 11 11 11 11 11 9
8 9 9 10 13 13 13 14 16 18 17 15 5 7 14 18 14 13 9 9 11 9
8 8 10 12 13 14 15 14 16 17 17 16 11 12 11 21 17 15 13 9 9 9
9 10 11 13 15 14 14 14 16 16 16 16 14 12 14 17 15 14 15 13 9 7
11 12 14 15 15 14 16 17 18 17 15 16 17 14 13 15 15 15 15 13 10 7
12 13 15 16 16 17 17 17 19 16 17 17 18 16 15 14 14 16 12 7 8 7
14 14 16 17 16 18 17 17 18 17 16 18 18 12 3 4 8 13 10 6 9 8
18 18 15 16 17 18 17 18 19 14 17 18 11 7 15 11 7 17 19 9 8 5
16 16 16 16 17 19 15 18 13 14 15 12 4 7 14 20 12 8 9 6 10 8
13 15 16 15 17 15 13 15 10 9 10 8 6 5 10 14 18 17 11 14 13 14
13 15 13 15 16 11 15 3 4 6 7 6 6 10 7 15 11 11 10 9 10 15
13 11 13 15 14 12 1 3 3 5 6 7 6 9 15 13 9 12 9 10 11 12
9 12 14 15 11 6 5 4 3 5 7 7 6 6 9 15 10 11 10 10 10 10
Wind_Direction
296 285 285 287 304 309 303 300 299 299 217 187 243 258 222 219 199 187 202 211 212 224
298 288 301 302 291 286 288 291 290 299 304 308 217 249 282 229 204 191 201 207 213 212
300 295 293 300 295 288 286 285 287 289 297 303 185 207 221 259 221 203 195 206 206 210
292 301 305 299 290 288 285 284 285 286 289 291 268 210 226 245 229 214 213 202 202 197
318 318 311 303 295 295 291 288 285 283 285 288 274 256 232 237 234 218 219 203 191 192
320 318 310 305 299 300 298 293 285 282 283 282 279 257 232 228 224 215 214 202 185 167
307 310 303 299 295 292 282 286 278 276 277 276 272 252 244 228 230 220 207 182 150 168
301 295 293 292 291 288 282 281 272 271 276 277 269 265 38 315 334 282 204 163 134 154
291 289 289 284 283 282 279 283 272 275 276 277 278 154 155 131 19 300 265 151 102 119
286 287 283 283 279 276 282 285 279 283 275 275 267 173 148 139 157 246 246 93 113 100
279 282 280 282 278 280 289 279 287 306 323 279 75 341 145 158 179 199 165 161 140 129
280 277 280 281 281 288 285 337 335 357 354 26 47 51 85 94 97 94 83 87 123 124
273 275 278 279 286 291 171 57 346 32 37 53 65 113 106 103 109 104 104 100 102 126
275 272 271 276 275 270 79 78 47 64 61 58 77 50 93 113 115 116 112 118 118 114